Kalaeloa, HI

10:13 AM HST on July 27, 2017 (GMT -1000)
Kalaeloa (John Rodgers Field)

Weather History for PHJR - July, 2013

Change the Weather History Date:

Monday, July 15, 2013

  Actual Average (PHHI) Record (PHHI)
Temperature  
Mean Temperature 78 °F -  
Max Temperature 84 °F 79 °F 84 °F (2002)
Min Temperature 73 °F 67 °F 64 °F (1997)
Cooling Degree Days 14    
Growing Degree Days 28 (Base 50)    
Moisture  
Dew Point 66 °F    
Average Humidity 68    
Maximum Humidity 84    
Minimum Humidity 58    
Precipitation  
Precipitation 0.00 in - - ()
Sea Level Pressure  
Sea Level Pressure 30.02 in    
Wind  
Wind Speed 4 mph (ESE)    
Max Wind Speed 14 mph    
Max Gust Speed 20 mph    
Visibility 10 miles    
Events      
Averages and records for this station are not official NWS values.
T = Trace of Precipitation, MM = Missing Value Source: NWS Daily Summary

Daily Weather History Graph

Daily Weather History Graph

Search for Another Location

Airport or City:

Trip Planner

Search our weather history database for the weather conditions in past years. The results will help you decide how hot, cold, wet, or windy it might be!

Date:

Astronomy

Jul. 15, 2013 Rise Set
Actual Time 5:59 AM HST 7:17 PM HST
Civil Twilight 5:34 AM HST 7:41 PM HST
Nautical Twilight 5:05 AM HST 8:10 PM HST
Astronomical Twilight 4:35 AM HST 8:40 PM HST
Moon 12:28 PM HST (7/15) No Moon Set
Length of Visible Light 14h 06m
Length of Day
13h 18m
Waxing Crescent, 48% of the Moon is Illuminated
Jul 15
Waxing Crescent
Jul 15
First Quarter
Jul 22
Full
Jul 29
Last Quarter
Aug 6
New

Hourly Weather History & Observations

Time (HST) Temp. Heat Index Dew Point Humidity Pressure Visibility Wind Dir Wind Speed Gust Speed Precip Events Conditions
12:53 AM 73.0 °F - 63.0 °F 71% 30.02 in 10.0 mi Calm Calm - N/A   Overcast
1:53 AM 73.9 °F - 64.0 °F 71% 30.00 in 10.0 mi Calm Calm - N/A   Overcast
2:53 AM 75.0 °F - 64.0 °F 69% 29.99 in 10.0 mi Calm Calm - N/A   Overcast
3:53 AM 75.0 °F - 64.9 °F 71% 30.00 in 10.0 mi Calm Calm - N/A   Overcast
4:53 AM 73.0 °F - 68.0 °F 84% 30.01 in 10.0 mi SW 8.1 mph - 0.00 in   Overcast
5:00 AM 73.4 °F - 68.0 °F 83% 29.99 in 10.0 mi SW 8.1 mph - N/A   Overcast
5:53 AM 73.0 °F - 68.0 °F 84% 30.01 in 10.0 mi NNW 3.5 mph - N/A   Overcast
6:42 AM 73.4 °F - 68.0 °F 83% 30.00 in 10.0 mi Calm Calm - N/A   Mostly Cloudy
6:53 AM 75.0 °F - 68.0 °F 79% 30.03 in 10.0 mi Calm Calm - N/A   Mostly Cloudy
7:53 AM 79.0 °F - 66.0 °F 64% 30.03 in 10.0 mi East 5.8 mph - N/A   Clear
8:53 AM 80.1 °F 81.9 °F 64.9 °F 60% 30.03 in 10.0 mi East 8.1 mph - N/A   Clear
9:53 AM 81.0 °F 83.3 °F 66.9 °F 62% 30.03 in 10.0 mi ESE 8.1 mph 17.3 mph N/A   Scattered Clouds
10:53 AM 82.9 °F 85.4 °F 66.9 °F 58% 30.03 in 10.0 mi ESE 11.5 mph 19.6 mph N/A   Scattered Clouds
11:53 AM 82.9 °F 85.4 °F 66.9 °F 58% 30.03 in 10.0 mi SE 11.5 mph 19.6 mph N/A   Partly Cloudy
12:53 PM 84.0 °F 87.0 °F 68.0 °F 58% 30.01 in 10.0 mi SE 13.8 mph 19.6 mph N/A   Clear
1:53 PM 82.9 °F 85.4 °F 66.9 °F 58% 30.01 in 10.0 mi SE 11.5 mph 18.4 mph N/A   Mostly Cloudy
2:53 PM 81.0 °F 83.8 °F 68.0 °F 65% 29.99 in 10.0 mi SE 9.2 mph - N/A   Mostly Cloudy
3:53 PM 82.9 °F 85.8 °F 68.0 °F 60% 29.99 in 10.0 mi SE 13.8 mph 17.3 mph N/A   Scattered Clouds
4:53 PM 81.0 °F 83.8 °F 68.0 °F 65% 29.99 in 10.0 mi SE 11.5 mph 19.6 mph N/A   Mostly Cloudy
5:53 PM 80.1 °F 82.7 °F 68.0 °F 67% 29.99 in 10.0 mi ESE 6.9 mph - N/A   Overcast
6:53 PM 80.1 °F 81.7 °F 64.0 °F 58% 30.01 in 10.0 mi Variable 5.8 mph - N/A   Scattered Clouds
7:53 PM 78.1 °F - 64.9 °F 64% 30.03 in 10.0 mi ENE 4.6 mph - N/A   Clear
8:53 PM 75.9 °F - 66.0 °F 71% 30.04 in 10.0 mi ENE 3.5 mph - N/A   Clear
9:53 PM 75.0 °F - 64.9 °F 71% 30.06 in 10.0 mi ENE 3.5 mph - N/A   Clear
10:53 PM 73.9 °F - 64.0 °F 71% 30.06 in 10.0 mi ENE 3.5 mph - N/A   Partly Cloudy
11:53 PM 73.0 °F - 64.0 °F 73% 30.06 in 10.0 mi Calm Calm - N/A   Clear